Time,TemperatureF,DewpointF,PressureIn,WindDirection,WindDirectionDegrees,WindSpeedMPH,WindSpeedGustMPH,Humidity,HourlyPrecipIn,Conditions,Clouds,dailyrainin,SoftwareType,DateUTC
2013-10-06 00:00:00,73.9,71.8,29.88,ENE,74,0.0,1.0,93,0.00,,,0.00,VWS V14.01,2013-10-06 04:00:00,
2013-10-06 00:01:00,73.9,71.4,29.88,ENE,74,0.0,1.0,92,0.00,,,0.00,VWS V14.01,2013-10-06 04:01:00,
2013-10-06 00:06:00,73.9,71.8,29.88,ENE,74,0.0,0.0,93,0.00,,,0.00,VWS V14.01,2013-10-06 04:06:00,
2013-10-06 00:11:00,73.7,71.2,29.88,ENE,75,0.0,0.0,92,0.00,,,0.00,VWS V14.01,2013-10-06 04:11:00,
2013-10-06 00:16:00,73.7,71.2,29.87,ENE,74,0.0,1.0,92,0.00,,,0.00,VWS V14.01,2013-10-06 04:16:00,
2013-10-06 00:21:00,73.5,71.0,29.87,ENE,76,0.0,1.0,92,0.00,,,0.00,VWS V14.01,2013-10-06 04:21:00,
2013-10-06 00:26:00,73.5,71.4,29.87,ENE,74,0.0,1.0,93,0.00,,,0.00,VWS V14.01,2013-10-06 04:26:00,
2013-10-06 00:30:00,73.5,71.4,29.87,ENE,75,0.0,1.0,93,0.00,,,0.00,VWS V14.01,2013-10-06 04:30:00,
2013-10-06 00:31:00,73.5,71.4,29.87,ENE,76,0.0,0.0,93,0.00,,,0.00,VWS V14.01,2013-10-06 04:31:00,
2013-10-06 00:36:00,73.3,71.2,29.87,ENE,76,0.0,0.0,93,0.00,,,0.00,VWS V14.01,2013-10-06 04:36:00,
2013-10-06 00:41:00,73.2,71.1,29.87,ENE,74,0.0,0.0,93,0.00,,,0.00,VWS V14.01,2013-10-06 04:41:00,
2013-10-06 00:46:00,73.0,70.9,29.87,ENE,75,0.0,0.0,93,0.00,,,0.00,VWS V14.01,2013-10-06 04:46:00,
2013-10-06 00:51:00,72.8,70.7,29.87,ENE,74,0.0,0.0,93,0.00,,,0.00,VWS V14.01,2013-10-06 04:51:00,
2013-10-06 00:56:00,72.8,71.0,29.87,ENE,74,0.0,0.0,94,0.00,,,0.00,VWS V14.01,2013-10-06 04:56:00,
2013-10-06 01:00:00,72.7,70.9,29.87,ENE,74,0.0,0.0,94,0.00,,,0.00,VWS V14.01,2013-10-06 05:00:00,
2013-10-06 01:01:00,72.7,70.9,29.87,ENE,76,0.0,0.0,94,0.00,,,0.00,VWS V14.01,2013-10-06 05:01:00,
2013-10-06 01:06:00,72.5,70.7,29.87,ENE,75,0.0,0.0,94,0.00,,,0.00,VWS V14.01,2013-10-06 05:06:00,
2013-10-06 01:11:00,72.5,70.7,29.87,ENE,75,0.0,0.0,94,0.00,,,0.00,VWS V14.01,2013-10-06 05:11:00,
2013-10-06 01:16:00,72.3,70.5,29.87,ENE,74,0.0,0.0,94,0.00,,,0.00,VWS V14.01,2013-10-06 05:16:00,
2013-10-06 01:21:00,72.3,70.5,29.87,ENE,75,0.0,0.0,94,0.00,,,0.00,VWS V14.01,2013-10-06 05:21:00,
2013-10-06 01:26:00,72.1,70.6,29.87,ENE,75,0.0,0.0,95,0.00,,,0.00,VWS V14.01,2013-10-06 05:26:00,
2013-10-06 01:30:00,72.0,70.5,29.86,ENE,75,0.0,0.0,95,0.00,,,0.00,VWS V14.01,2013-10-06 05:30:00,
2013-10-06 01:31:00,72.0,70.5,29.86,ENE,74,0.0,0.0,95,0.00,,,0.00,VWS V14.01,2013-10-06 05:31:00,
2013-10-06 01:36:00,72.0,70.5,29.86,ENE,74,0.0,0.0,95,0.00,,,0.00,VWS V14.01,2013-10-06 05:36:00,
2013-10-06 01:41:00,72.0,70.5,29.86,ENE,74,0.0,0.0,95,0.00,,,0.00,VWS V14.01,2013-10-06 05:41:00,
2013-10-06 01:46:00,72.0,70.5,29.86,ENE,75,0.0,0.0,95,0.00,,,0.00,VWS V14.01,2013-10-06 05:46:00,
2013-10-06 01:51:00,72.0,70.5,29.86,ENE,74,0.0,0.0,95,0.00,,,0.00,VWS V14.01,2013-10-06 05:51:00,
2013-10-06 01:56:00,72.0,70.8,29.86,ENE,75,0.0,0.0,96,0.00,,,0.00,VWS V14.01,2013-10-06 05:56:00,
2013-10-06 02:00:00,71.8,70.6,29.86,ENE,74,0.0,0.0,96,0.00,,,0.00,VWS V14.01,2013-10-06 06:00:00,
2013-10-06 02:01:00,71.8,70.6,29.86,ENE,75,0.0,0.0,96,0.00,,,0.00,VWS V14.01,2013-10-06 06:01:00,
2013-10-06 02:06:00,71.8,70.6,29.86,ENE,75,0.0,0.0,96,0.00,,,0.00,VWS V14.01,2013-10-06 06:06:00,
2013-10-06 02:11:00,71.8,70.6,29.86,ENE,74,0.0,0.0,96,0.00,,,0.00,VWS V14.01,2013-10-06 06:11:00,
2013-10-06 02:16:00,71.6,70.4,29.85,ENE,75,0.0,0.0,96,0.00,,,0.00,VWS V14.01,2013-10-06 06:16:00,
2013-10-06 02:21:00,71.3,70.1,29.85,ENE,75,0.0,1.0,96,0.00,,,0.00,VWS V14.01,2013-10-06 06:21:00,
2013-10-06 02:26:00,71.3,70.1,29.85,ENE,74,0.0,1.0,96,0.00,,,0.00,VWS V14.01,2013-10-06 06:26:00,
2013-10-06 02:30:00,71.3,70.1,29.85,ENE,74,0.0,1.0,96,0.00,,,0.00,VWS V14.01,2013-10-06 06:30:00,
2013-10-06 02:31:00,71.3,70.1,29.85,ENE,76,0.0,0.0,96,0.00,,,0.00,VWS V14.01,2013-10-06 06:31:00,
2013-10-06 02:36:00,71.3,70.1,29.85,ENE,75,0.0,0.0,96,0.00,,,0.00,VWS V14.01,2013-10-06 06:36:00,
2013-10-06 02:41:00,71.1,69.9,29.85,ENE,76,0.0,0.0,96,0.00,,,0.00,VWS V14.01,2013-10-06 06:41:00,
2013-10-06 02:46:00,71.1,69.9,29.84,ENE,74,0.0,0.0,96,0.00,,,0.00,VWS V14.01,2013-10-06 06:46:00,
2013-10-06 02:51:00,71.1,69.9,29.84,ENE,75,0.0,0.0,96,0.00,,,0.00,VWS V14.01,2013-10-06 06:51:00,
2013-10-06 02:56:00,71.1,70.2,29.84,ENE,75,0.0,0.0,97,0.00,,,0.00,VWS V14.01,2013-10-06 06:56:00,
2013-10-06 03:00:00,70.9,70.0,29.84,ENE,75,0.0,0.0,97,0.00,,,0.00,VWS V14.01,2013-10-06 07:00:00,
2013-10-06 03:01:00,70.9,70.0,29.84,ENE,74,0.0,0.0,97,0.00,,,0.00,VWS V14.01,2013-10-06 07:01:00,
2013-10-06 03:06:00,70.9,70.0,29.84,ENE,74,0.0,0.0,97,0.00,,,0.00,VWS V14.01,2013-10-06 07:06:00,
2013-10-06 03:11:00,70.8,69.9,29.84,ENE,76,0.0,0.0,97,0.00,,,0.00,VWS V14.01,2013-10-06 07:11:00,
2013-10-06 03:16:00,70.8,69.9,29.83,ENE,76,0.0,0.0,97,0.00,,,0.00,VWS V14.01,2013-10-06 07:16:00,
2013-10-06 03:21:00,70.6,69.7,29.83,ENE,74,0.0,0.0,97,0.00,,,0.00,VWS V14.01,2013-10-06 07:21:00,
2013-10-06 03:26:00,70.6,69.7,29.83,ENE,74,0.0,0.0,97,0.00,,,0.00,VWS V14.01,2013-10-06 07:26:00,
2013-10-06 03:30:00,70.4,69.5,29.83,ENE,76,0.0,0.0,97,0.00,,,0.00,VWS V14.01,2013-10-06 07:30:00,
2013-10-06 03:31:00,70.4,69.5,29.83,ENE,75,0.0,0.0,97,0.00,,,0.00,VWS V14.01,2013-10-06 07:31:00,
2013-10-06 03:36:00,70.4,69.5,29.83,ENE,76,0.0,0.0,97,0.00,,,0.00,VWS V14.01,2013-10-06 07:36:00,
2013-10-06 03:41:00,70.4,69.5,29.83,ENE,74,0.0,0.0,97,0.00,,,0.00,VWS V14.01,2013-10-06 07:41:00,
2013-10-06 03:46:00,70.4,69.5,29.83,ENE,74,0.0,0.0,97,0.00,,,0.00,VWS V14.01,2013-10-06 07:46:00,
2013-10-06 03:51:00,70.4,69.5,29.83,ENE,75,0.0,0.0,97,0.00,,,0.00,VWS V14.01,2013-10-06 07:51:00,
2013-10-06 03:56:00,70.4,69.5,29.83,ENE,75,0.0,0.0,97,0.00,,,0.00,VWS V14.01,2013-10-06 07:56:00,
2013-10-06 04:00:00,70.4,69.5,29.82,ENE,76,0.0,0.0,97,0.00,,,0.00,VWS V14.01,2013-10-06 08:00:00,
2013-10-06 04:01:00,70.4,69.5,29.82,ENE,75,0.0,0.0,97,0.00,,,0.00,VWS V14.01,2013-10-06 08:01:00,
2013-10-06 04:06:00,70.4,69.5,29.82,ENE,75,0.0,0.0,97,0.00,,,0.00,VWS V14.01,2013-10-06 08:06:00,
2013-10-06 04:11:00,70.4,69.5,29.82,ENE,76,0.0,1.0,97,0.00,,,0.00,VWS V14.01,2013-10-06 08:11:00,
2013-10-06 04:16:00,70.4,69.5,29.82,ENE,74,0.0,1.0,97,0.00,,,0.00,VWS V14.01,2013-10-06 08:16:00,
2013-10-06 04:21:00,70.4,69.5,29.82,ENE,74,0.0,1.0,97,0.00,,,0.00,VWS V14.01,2013-10-06 08:21:00,
2013-10-06 04:26:00,70.6,69.7,29.82,ENE,75,0.0,1.0,97,0.00,,,0.00,VWS V14.01,2013-10-06 08:26:00,
2013-10-06 04:30:00,70.8,70.2,29.82,ENE,74,0.0,1.0,98,0.00,,,0.00,VWS V14.01,2013-10-06 08:30:00,
2013-10-06 04:31:00,70.8,70.2,29.82,ENE,74,0.0,0.0,98,0.00,,,0.00,VWS V14.01,2013-10-06 08:31:00,
2013-10-06 04:36:00,70.9,70.3,29.82,ENE,74,0.0,0.0,98,0.00,,,0.00,VWS V14.01,2013-10-06 08:36:00,
2013-10-06 04:41:00,71.1,70.5,29.82,ENE,74,0.0,0.0,98,0.00,,,0.00,VWS V14.01,2013-10-06 08:41:00,
2013-10-06 04:46:00,71.3,70.7,29.81,ENE,76,0.0,0.0,98,0.00,,,0.00,VWS V14.01,2013-10-06 08:46:00,
2013-10-06 04:51:00,71.3,70.7,29.81,ENE,74,0.0,0.0,98,0.00,,,0.00,VWS V14.01,2013-10-06 08:51:00,
2013-10-06 04:56:00,71.3,70.7,29.81,ENE,74,0.0,0.0,98,0.00,,,0.00,VWS V14.01,2013-10-06 08:56:00,
2013-10-06 05:00:00,71.3,70.7,29.81,ENE,74,0.0,0.0,98,0.00,,,0.00,VWS V14.01,2013-10-06 09:00:00,
2013-10-06 05:01:00,71.5,70.9,29.81,ENE,75,0.0,1.0,98,0.00,,,0.00,VWS V14.01,2013-10-06 09:01:00,
2013-10-06 05:06:00,71.3,70.7,29.81,ENE,74,0.0,1.0,98,0.00,,,0.00,VWS V14.01,2013-10-06 09:06:00,
2013-10-06 05:09:00,71.3,70.7,29.81,ENE,74,0.0,1.0,98,0.00,,,0.00,VWS V14.01,2013-10-06 09:09:00,
2013-10-06 05:14:00,71.5,70.9,29.81,ENE,74,0.0,1.0,98,0.00,,,0.00,VWS V14.01,2013-10-06 09:14:00,
2013-10-06 05:19:00,71.5,70.9,29.81,ENE,74,0.0,1.0,98,0.00,,,0.00,VWS V14.01,2013-10-06 09:19:00,
2013-10-06 05:24:00,71.6,71.0,29.81,ENE,76,0.0,1.0,98,0.00,,,0.00,VWS V14.01,2013-10-06 09:24:00,
2013-10-06 05:29:00,71.6,71.0,29.81,ENE,74,0.0,1.0,98,0.00,,,0.00,VWS V14.01,2013-10-06 09:29:00,
2013-10-06 05:30:00,71.6,71.0,29.82,ENE,74,0.0,1.0,98,0.00,,,0.00,VWS V14.01,2013-10-06 09:30:00,
2013-10-06 05:34:00,71.6,71.0,29.82,ENE,74,0.0,0.0,98,0.00,,,0.00,VWS V14.01,2013-10-06 09:34:00,
2013-10-06 05:39:00,71.6,71.0,29.82,ENE,74,0.0,0.0,98,0.00,,,0.00,VWS V14.01,2013-10-06 09:39:00,
2013-10-06 05:44:00,71.6,71.0,29.82,ENE,74,0.0,0.0,98,0.00,,,0.00,VWS V14.01,2013-10-06 09:44:00,
2013-10-06 05:49:00,71.6,71.0,29.82,ENE,75,0.0,0.0,98,0.00,,,0.00,VWS V14.01,2013-10-06 09:49:00,
2013-10-06 05:54:00,71.6,71.3,29.82,ENE,74,0.0,0.0,99,0.00,,,0.00,VWS V14.01,2013-10-06 09:54:00,
2013-10-06 05:59:00,71.6,71.0,29.82,ENE,74,0.0,0.0,98,0.00,,,0.00,VWS V14.01,2013-10-06 09:59:00,
2013-10-06 06:00:00,71.5,70.9,29.82,ENE,74,0.0,0.0,98,0.00,,,0.00,VWS V14.01,2013-10-06 10:00:00,
2013-10-06 06:03:00,71.3,70.7,29.82,ENE,75,0.0,0.0,98,0.00,,,0.00,VWS V14.01,2013-10-06 10:03:00,
2013-10-06 06:08:00,71.1,70.5,29.82,ENE,74,0.0,0.0,98,0.00,,,0.00,VWS V14.01,2013-10-06 10:08:00,
2013-10-06 06:13:00,71.1,70.5,29.82,ENE,74,0.0,0.0,98,0.00,,,0.00,VWS V14.01,2013-10-06 10:13:00,
2013-10-06 06:18:00,71.3,71.0,29.83,ENE,75,0.0,0.0,99,0.00,,,0.00,VWS V14.01,2013-10-06 10:18:00,
2013-10-06 06:23:00,71.3,71.0,29.83,ENE,74,0.0,0.0,99,0.00,,,0.00,VWS V14.01,2013-10-06 10:23:00,
2013-10-06 06:28:00,71.3,71.0,29.83,ENE,75,0.0,0.0,99,0.00,,,0.00,VWS V14.01,2013-10-06 10:28:00,
2013-10-06 06:30:00,71.3,71.0,29.83,ENE,75,0.0,0.0,99,0.00,,,0.00,VWS V14.01,2013-10-06 10:30:00,
2013-10-06 06:33:00,71.1,70.8,29.83,ENE,74,0.0,0.0,99,0.00,,,0.00,VWS V14.01,2013-10-06 10:33:00,
2013-10-06 06:38:00,71.1,70.5,29.83,ENE,75,0.0,0.0,98,0.00,,,0.00,VWS V14.01,2013-10-06 10:38:00,
2013-10-06 06:43:00,71.1,70.8,29.83,ENE,75,0.0,1.0,99,0.00,,,0.00,VWS V14.01,2013-10-06 10:43:00,
2013-10-06 06:48:00,71.3,71.0,29.83,ENE,75,0.0,1.0,99,0.00,,,0.00,VWS V14.01,2013-10-06 10:48:00,
2013-10-06 06:53:00,71.5,71.2,29.83,ENE,75,0.0,1.0,99,0.00,,,0.00,VWS V14.01,2013-10-06 10:53:00,
2013-10-06 06:58:00,71.6,71.3,29.83,ENE,75,0.0,1.0,99,0.00,,,0.00,VWS V14.01,2013-10-06 10:58:00,
2013-10-06 07:00:00,71.6,71.3,29.83,ENE,74,0.0,1.0,99,0.00,,,0.00,VWS V14.01,2013-10-06 11:00:00,
2013-10-06 07:03:00,71.8,71.5,29.83,ENE,74,0.0,0.0,99,0.00,,,0.00,VWS V14.01,2013-10-06 11:03:00,
2013-10-06 07:08:00,72.0,71.7,29.83,ENE,74,0.0,0.0,99,0.00,,,0.00,VWS V14.01,2013-10-06 11:08:00,
2013-10-06 07:13:00,72.0,71.7,29.83,ENE,74,0.0,1.0,99,0.00,,,0.00,VWS V14.01,2013-10-06 11:13:00,
2013-10-06 07:18:00,71.8,71.5,29.83,ENE,75,0.0,1.0,99,0.00,,,0.00,VWS V14.01,2013-10-06 11:18:00,
2013-10-06 07:23:00,71.8,71.5,29.83,ENE,76,0.0,1.0,99,0.00,,,0.00,VWS V14.01,2013-10-06 11:23:00,
2013-10-06 07:28:00,71.8,71.5,29.83,ENE,75,0.0,1.0,99,0.00,,,0.00,VWS V14.01,2013-10-06 11:28:00,
2013-10-06 07:30:00,71.8,71.5,29.84,ENE,74,0.0,1.0,99,0.00,,,0.00,VWS V14.01,2013-10-06 11:30:00,
2013-10-06 07:33:00,71.8,71.5,29.84,ENE,75,0.0,0.0,99,0.00,,,0.00,VWS V14.01,2013-10-06 11:33:00,
2013-10-06 07:38:00,71.8,71.5,29.84,ENE,75,0.0,0.0,99,0.00,,,0.00,VWS V14.01,2013-10-06 11:38:00,
2013-10-06 07:43:00,72.0,71.7,29.84,ENE,76,0.0,0.0,99,0.00,,,0.00,VWS V14.01,2013-10-06 11:43:00,
2013-10-06 07:48:00,72.3,72.0,29.84,ENE,74,0.0,0.0,99,0.00,,,0.00,VWS V14.01,2013-10-06 11:48:00,
2013-10-06 07:53:00,72.7,72.4,29.84,NE,54,0.0,1.0,99,0.00,,,0.00,VWS V14.01,2013-10-06 11:53:00,
2013-10-06 07:58:00,72.8,72.5,29.84,NE,54,0.0,1.0,99,0.00,,,0.00,VWS V14.01,2013-10-06 11:58:00,
2013-10-06 08:00:00,73.0,72.7,29.84,NE,55,0.0,1.0,99,0.00,,,0.00,VWS V14.01,2013-10-06 12:00:00,
2013-10-06 08:03:00,73.2,72.9,29.84,NE,53,0.0,1.0,99,0.00,,,0.00,VWS V14.01,2013-10-06 12:03:00,
2013-10-06 08:08:00,73.5,73.5,29.84,NE,55,1.0,1.0,100,0.00,,,0.00,VWS V14.01,2013-10-06 12:08:00,
2013-10-06 08:13:00,73.7,73.7,29.84,NE,53,0.0,2.0,100,0.00,,,0.00,VWS V14.01,2013-10-06 12:13:00,
2013-10-06 08:18:00,73.9,73.9,29.84,ENE,65,0.0,4.0,100,0.00,,,0.00,VWS V14.01,2013-10-06 12:18:00,
2013-10-06 08:23:00,74.0,74.0,29.84,ENE,76,0.0,4.0,100,0.00,,,0.00,VWS V14.01,2013-10-06 12:23:00,
2013-10-06 08:28:00,74.4,74.4,29.84,ENE,71,2.0,4.0,100,0.00,,,0.00,VWS V14.01,2013-10-06 12:28:00,
2013-10-06 08:30:00,74.6,74.6,29.84,ENE,72,0.0,4.0,100,0.00,,,0.00,VWS V14.01,2013-10-06 12:30:00,
2013-10-06 08:33:00,74.7,74.7,29.84,ENE,71,0.0,2.0,100,0.00,,,0.00,VWS V14.01,2013-10-06 12:33:00,
2013-10-06 08:38:00,75.4,75.4,29.84,ESE,108,1.0,5.0,100,0.00,,,0.00,VWS V14.01,2013-10-06 12:38:00,
2013-10-06 08:43:00,76.0,75.7,29.84,East,90,0.0,5.0,99,0.00,,,0.00,VWS V14.01,2013-10-06 12:43:00,
2013-10-06 08:48:00,76.7,76.4,29.84,ENE,75,1.0,5.0,99,0.00,,,0.00,VWS V14.01,2013-10-06 12:48:00,
2013-10-06 08:53:00,77.4,75.9,29.84,East,80,2.0,5.0,95,0.00,,,0.00,VWS V14.01,2013-10-06 12:53:00,
2013-10-06 08:58:00,78.3,75.8,29.84,East,80,0.0,5.0,92,0.00,,,0.00,VWS V14.01,2013-10-06 12:58:00,
2013-10-06 09:00:00,78.8,75.3,29.85,East,81,0.0,5.0,89,0.00,,,0.00,VWS V14.01,2013-10-06 13:00:00,
2013-10-06 09:03:00,79.2,75.3,29.85,East,82,0.0,3.0,88,0.00,,,0.00,VWS V14.01,2013-10-06 13:03:00,
2013-10-06 09:08:00,79.9,75.0,29.85,ENE,78,0.0,4.0,85,0.00,,,0.00,VWS V14.01,2013-10-06 13:08:00,
2013-10-06 09:13:00,80.5,74.5,29.85,ESE,105,0.0,5.0,82,0.00,,,0.00,VWS V14.01,2013-10-06 13:13:00,
2013-10-06 09:18:00,80.5,74.9,29.85,ESE,102,0.0,5.0,83,0.00,,,0.00,VWS V14.01,2013-10-06 13:18:00,
2013-10-06 09:23:00,80.9,74.5,29.85,ESE,108,2.0,5.0,81,0.00,,,0.00,VWS V14.01,2013-10-06 13:23:00,
2013-10-06 09:28:00,81.2,74.1,29.85,SE,140,4.0,5.0,79,0.00,,,0.00,VWS V14.01,2013-10-06 13:28:00,
2013-10-06 09:30:00,81.2,74.4,29.85,SE,130,0.0,5.0,80,0.00,,,0.00,VWS V14.01,2013-10-06 13:30:00,
2013-10-06 09:33:00,81.1,74.3,29.85,SE,130,0.0,4.0,80,0.00,,,0.00,VWS V14.01,2013-10-06 13:33:00,
2013-10-06 09:38:00,81.1,74.0,29.85,SSE,150,0.0,6.0,79,0.00,,,0.00,VWS V14.01,2013-10-06 13:38:00,
2013-10-06 09:43:00,81.1,74.3,29.85,SE,137,0.0,6.0,80,0.00,,,0.00,VWS V14.01,2013-10-06 13:43:00,
2013-10-06 09:48:00,81.2,74.4,29.85,SE,134,4.0,6.0,80,0.00,,,0.00,VWS V14.01,2013-10-06 13:48:00,
2013-10-06 09:53:00,81.6,74.1,29.85,South,177,3.0,6.0,78,0.00,,,0.00,VWS V14.01,2013-10-06 13:53:00,
2013-10-06 09:58:00,81.6,73.3,29.85,ESE,121,6.0,7.0,76,0.00,,,0.00,VWS V14.01,2013-10-06 13:58:00,
2013-10-06 10:00:00,81.8,73.5,29.85,SSE,159,2.0,7.0,76,0.00,,,0.00,VWS V14.01,2013-10-06 14:00:00,
2013-10-06 10:03:00,82.0,74.1,29.85,SE,140,4.0,9.0,77,0.00,,,0.00,VWS V14.01,2013-10-06 14:03:00,
2013-10-06 10:08:00,82.2,73.5,29.85,ESE,113,5.0,9.0,75,0.00,,,0.00,VWS V14.01,2013-10-06 14:08:00,
2013-10-06 10:13:00,82.2,73.1,29.85,SE,130,1.0,9.0,74,0.00,,,0.00,VWS V14.01,2013-10-06 14:13:00,
2013-10-06 10:18:00,82.6,73.9,29.86,East,101,1.0,9.0,75,0.00,,,0.00,VWS V14.01,2013-10-06 14:18:00,
2013-10-06 10:23:00,83.2,74.1,29.86,ESE,105,7.0,9.0,74,0.00,,,0.00,VWS V14.01,2013-10-06 14:23:00,
2013-10-06 10:28:00,83.8,74.2,29.86,SSW,205,0.0,9.0,73,0.00,,,0.00,VWS V14.01,2013-10-06 14:28:00,
2013-10-06 10:30:00,83.8,72.6,29.86,ESE,123,0.0,9.0,69,0.00,,,0.00,VWS V14.01,2013-10-06 14:30:00,
2013-10-06 10:33:00,83.8,73.4,29.86,ESE,103,2.0,6.0,71,0.00,,,0.00,VWS V14.01,2013-10-06 14:33:00,
2013-10-06 10:38:00,84.0,73.2,29.86,ESE,117,3.0,6.0,70,0.00,,,0.00,VWS V14.01,2013-10-06 14:38:00,
2013-10-06 10:43:00,84.1,73.7,29.86,ESE,104,0.0,6.0,71,0.00,,,0.00,VWS V14.01,2013-10-06 14:43:00,
2013-10-06 10:48:00,84.3,73.5,29.86,East,99,5.0,7.0,70,0.00,,,0.00,VWS V14.01,2013-10-06 14:48:00,
2013-10-06 10:53:00,84.3,73.0,29.86,East,94,5.0,7.0,69,0.00,,,0.00,VWS V14.01,2013-10-06 14:53:00,
2013-10-06 10:58:00,84.5,73.2,29.86,SE,137,0.0,7.0,69,0.00,,,0.00,VWS V14.01,2013-10-06 14:58:00,
2013-10-06 11:00:00,84.3,72.6,29.86,SE,134,3.0,9.0,68,0.00,,,0.00,VWS V14.01,2013-10-06 15:00:00,
2013-10-06 11:03:00,84.1,72.0,29.86,SE,144,2.0,6.0,67,0.00,,,0.00,VWS V14.01,2013-10-06 15:03:00,
2013-10-06 11:08:00,84.5,74.5,29.86,ESE,117,3.0,10.0,72,0.00,,,0.00,VWS V14.01,2013-10-06 15:08:00,
2013-10-06 11:13:00,84.9,72.3,29.86,SE,144,0.0,10.0,66,0.00,,,0.00,VWS V14.01,2013-10-06 15:13:00,
2013-10-06 11:18:00,84.9,72.3,29.86,ESE,119,4.0,10.0,66,0.00,,,0.00,VWS V14.01,2013-10-06 15:18:00,
2013-10-06 11:23:00,85.1,73.4,29.86,ESE,116,3.0,10.0,68,0.00,,,0.00,VWS V14.01,2013-10-06 15:23:00,
2013-10-06 11:28:00,85.7,73.5,29.86,East,89,6.0,11.0,67,0.00,,,0.00,VWS V14.01,2013-10-06 15:28:00,
2013-10-06 11:30:00,85.9,72.3,29.85,ESE,113,3.0,11.0,64,0.00,,,0.00,VWS V14.01,2013-10-06 15:30:00,
2013-10-06 11:33:00,85.9,72.8,29.85,SE,124,0.0,9.0,65,0.00,,,0.00,VWS V14.01,2013-10-06 15:33:00,
2013-10-06 11:38:00,85.9,71.4,29.85,SSE,148,0.0,10.0,62,0.00,,,0.00,VWS V14.01,2013-10-06 15:38:00,
2013-10-06 11:43:00,85.7,73.0,29.85,SE,145,5.0,10.0,66,0.00,,,0.00,VWS V14.01,2013-10-06 15:43:00,
2013-10-06 11:48:00,86.1,72.5,29.85,South,184,3.0,10.0,64,0.00,,,0.00,VWS V14.01,2013-10-06 15:48:00,
2013-10-06 11:53:00,85.7,72.1,29.85,SE,141,6.0,10.0,64,0.00,,,0.00,VWS V14.01,2013-10-06 15:53:00,
2013-10-06 11:58:00,84.5,72.3,29.85,ESE,111,4.0,10.0,67,0.00,,,0.00,VWS V14.01,2013-10-06 15:58:00,
2013-10-06 12:00:00,84.5,72.3,29.84,SE,138,0.0,10.0,67,0.00,,,0.00,VWS V14.01,2013-10-06 16:00:00,
2013-10-06 12:03:00,84.9,72.7,29.84,SE,146,0.0,9.0,67,0.00,,,0.00,VWS V14.01,2013-10-06 16:03:00,
2013-10-06 12:08:00,85.1,72.5,29.84,SSE,154,6.0,9.0,66,0.00,,,0.00,VWS V14.01,2013-10-06 16:08:00,
2013-10-06 12:13:00,85.3,72.7,29.84,SE,140,3.0,10.0,66,0.00,,,0.00,VWS V14.01,2013-10-06 16:13:00,
2013-10-06 12:18:00,84.9,72.3,29.84,North,360,6.0,10.0,66,0.00,,,0.00,VWS V14.01,2013-10-06 16:18:00,
2013-10-06 12:23:00,86.3,72.2,29.84,SE,140,3.0,10.0,63,0.00,,,0.00,VWS V14.01,2013-10-06 16:23:00,
2013-10-06 12:28:00,86.1,71.1,29.84,SSE,163,0.0,11.0,61,0.00,,,0.00,VWS V14.01,2013-10-06 16:28:00,
2013-10-06 12:30:00,85.7,71.2,29.84,SE,132,0.0,11.0,62,0.00,,,0.00,VWS V14.01,2013-10-06 16:30:00,
2013-10-06 12:33:00,85.5,71.9,29.84,SE,141,6.0,6.0,64,0.00,,,0.00,VWS V14.01,2013-10-06 16:33:00,
2013-10-06 12:38:00,85.3,71.8,29.84,East,94,7.0,7.0,64,0.00,,,0.00,VWS V14.01,2013-10-06 16:38:00,
2013-10-06 12:43:00,85.7,72.1,29.84,South,187,5.0,12.0,64,0.00,,,0.00,VWS V14.01,2013-10-06 16:43:00,
2013-10-06 12:48:00,85.7,71.7,29.83,ESE,113,6.0,12.0,63,0.00,,,0.00,VWS V14.01,2013-10-06 16:48:00,
2013-10-06 12:53:00,86.5,70.5,29.83,SSE,149,4.0,12.0,59,0.00,,,0.00,VWS V14.01,2013-10-06 16:53:00,
2013-10-06 12:58:00,85.7,70.2,29.83,SW,228,3.0,12.0,60,0.00,,,0.00,VWS V14.01,2013-10-06 16:58:00,
2013-10-06 13:00:00,85.5,71.5,29.83,ESE,106,3.0,12.0,63,0.00,,,0.00,VWS V14.01,2013-10-06 17:00:00,
2013-10-06 13:03:00,85.3,71.3,29.83,SE,128,1.0,6.0,63,0.00,,,0.00,VWS V14.01,2013-10-06 17:03:00,
2013-10-06 13:08:00,85.7,70.7,29.83,East,101,3.0,10.0,61,0.00,,,0.00,VWS V14.01,2013-10-06 17:08:00,
2013-10-06 13:13:00,85.5,71.0,29.83,SE,130,0.0,10.0,62,0.00,,,0.00,VWS V14.01,2013-10-06 17:13:00,
2013-10-06 13:18:00,85.3,71.8,29.82,East,96,2.0,10.0,64,0.00,,,0.00,VWS V14.01,2013-10-06 17:18:00,
2013-10-06 13:23:00,86.1,70.6,29.82,SSE,162,3.0,10.0,60,0.00,,,0.00,VWS V14.01,2013-10-06 17:23:00,
2013-10-06 13:28:00,87.2,67.4,29.82,South,188,4.0,10.0,52,0.00,,,0.00,VWS V14.01,2013-10-06 17:28:00,
2013-10-06 13:30:00,87.6,67.8,29.82,South,190,3.0,10.0,52,0.00,,,0.00,VWS V14.01,2013-10-06 17:30:00,
2013-10-06 13:33:00,87.8,67.4,29.82,SSW,206,0.0,6.0,51,0.00,,,0.00,VWS V14.01,2013-10-06 17:33:00,
2013-10-06 13:38:00,88.8,69.5,29.82,SE,136,5.0,6.0,53,0.00,,,0.00,VWS V14.01,2013-10-06 17:38:00,
2013-10-06 13:43:00,88.8,68.4,29.82,SSW,208,5.0,9.0,51,0.00,,,0.00,VWS V14.01,2013-10-06 17:43:00,
2013-10-06 13:48:00,88.8,67.8,29.81,SSE,166,0.0,9.0,50,0.00,,,0.00,VWS V14.01,2013-10-06 17:48:00,
2013-10-06 13:53:00,89.0,69.1,29.81,West,264,0.0,9.0,52,0.00,,,0.00,VWS V14.01,2013-10-06 17:53:00,
2013-10-06 13:58:00,89.3,70.5,29.81,West,265,1.0,9.0,54,0.00,,,0.00,VWS V14.01,2013-10-06 17:58:00,
2013-10-06 14:00:00,89.5,70.1,29.80,West,260,4.0,9.0,53,0.00,,,0.00,VWS V14.01,2013-10-06 18:00:00,
2013-10-06 14:03:00,89.5,69.0,29.80,WSW,252,1.0,7.0,51,0.00,,,0.00,VWS V14.01,2013-10-06 18:03:00,
2013-10-06 14:08:00,89.3,69.4,29.80,West,267,5.0,11.0,52,0.00,,,0.00,VWS V14.01,2013-10-06 18:08:00,
2013-10-06 14:13:00,88.8,68.9,29.80,South,175,0.0,11.0,52,0.00,,,0.00,VWS V14.01,2013-10-06 18:13:00,
2013-10-06 14:18:00,89.3,69.9,29.80,WSW,257,0.0,11.0,53,0.00,,,0.00,VWS V14.01,2013-10-06 18:18:00,
2013-10-06 14:23:00,89.3,67.7,29.80,SW,223,3.0,11.0,49,0.00,,,0.00,VWS V14.01,2013-10-06 18:23:00,
2013-10-06 14:28:00,89.0,68.5,29.80,SSE,148,3.0,11.0,51,0.00,,,0.00,VWS V14.01,2013-10-06 18:28:00,
2013-10-06 14:30:00,88.8,68.9,29.79,ESE,122,3.0,11.0,52,0.00,,,0.00,VWS V14.01,2013-10-06 18:30:00,
2013-10-06 14:33:00,89.0,69.7,29.79,SE,127,3.0,4.0,53,0.00,,,0.00,VWS V14.01,2013-10-06 18:33:00,
2013-10-06 14:38:00,88.8,69.5,29.79,SW,227,5.0,7.0,53,0.00,,,0.00,VWS V14.01,2013-10-06 18:38:00,
2013-10-06 14:43:00,88.6,68.2,29.79,SSE,158,0.0,7.0,51,0.00,,,0.00,VWS V14.01,2013-10-06 18:43:00,
2013-10-06 14:48:00,89.0,67.4,29.78,SSE,153,0.0,7.0,49,0.00,,,0.00,VWS V14.01,2013-10-06 18:48:00,
2013-10-06 14:53:00,89.3,66.4,29.78,South,190,0.0,7.0,47,0.00,,,0.00,VWS V14.01,2013-10-06 18:53:00,
2013-10-06 14:58:00,89.9,67.6,29.78,SSW,205,0.0,9.0,48,0.00,,,0.00,VWS V14.01,2013-10-06 18:58:00,
2013-10-06 15:00:00,89.7,66.8,29.78,SSW,196,1.0,9.0,47,0.00,,,0.00,VWS V14.01,2013-10-06 19:00:00,
2013-10-06 15:03:00,89.7,65.6,29.78,WSW,248,2.0,4.0,45,0.00,,,0.00,VWS V14.01,2013-10-06 19:03:00,
2013-10-06 15:08:00,89.9,67.6,29.78,SSW,209,7.0,14.0,48,0.00,,,0.00,VWS V14.01,2013-10-06 19:08:00,
2013-10-06 15:13:00,89.9,66.4,29.78,West,262,6.0,14.0,46,0.00,,,0.00,VWS V14.01,2013-10-06 19:13:00,
2013-10-06 15:18:00,90.1,67.2,29.77,WNW,293,0.0,14.0,47,0.00,,,0.00,VWS V14.01,2013-10-06 19:18:00,
2013-10-06 15:23:00,89.9,66.4,29.77,SSW,197,2.0,14.0,46,0.00,,,0.00,VWS V14.01,2013-10-06 19:23:00,
2013-10-06 15:28:00,90.1,65.9,29.77,WSW,240,4.0,14.0,45,0.00,,,0.00,VWS V14.01,2013-10-06 19:28:00,
2013-10-06 15:30:00,90.1,67.2,29.77,SSW,212,0.0,14.0,47,0.00,,,0.00,VWS V14.01,2013-10-06 19:30:00,
2013-10-06 15:33:00,89.9,65.1,29.77,SSW,213,0.0,0.0,44,0.00,,,0.00,VWS V14.01,2013-10-06 19:33:00,
2013-10-06 15:38:00,90.3,66.1,29.77,WSW,247,5.0,5.0,45,0.00,,,0.00,VWS V14.01,2013-10-06 19:38:00,
2013-10-06 15:43:00,90.3,65.4,29.77,SSW,210,1.0,5.0,44,0.00,,,0.00,VWS V14.01,2013-10-06 19:43:00,
2013-10-06 15:48:00,90.5,66.3,29.76,WSW,238,0.0,9.0,45,0.00,,,0.00,VWS V14.01,2013-10-06 19:48:00,
2013-10-06 15:53:00,91.0,66.1,29.76,SW,219,4.0,9.0,44,0.00,,,0.00,VWS V14.01,2013-10-06 19:53:00,
2013-10-06 15:58:00,91.0,66.1,29.76,SE,145,4.0,9.0,44,0.00,,,0.00,VWS V14.01,2013-10-06 19:58:00,
2013-10-06 16:00:00,90.7,66.5,29.75,South,174,2.0,9.0,45,0.00,,,0.00,VWS V14.01,2013-10-06 20:00:00,
2013-10-06 16:03:00,90.5,66.9,29.75,SW,225,6.0,6.0,46,0.00,,,0.00,VWS V14.01,2013-10-06 20:03:00,
2013-10-06 16:08:00,90.5,66.9,29.75,WSW,240,2.0,6.0,46,0.00,,,0.00,VWS V14.01,2013-10-06 20:08:00,
2013-10-06 16:13:00,90.7,67.7,29.75,SSE,157,0.0,7.0,47,0.00,,,0.00,VWS V14.01,2013-10-06 20:13:00,
2013-10-06 16:18:00,90.7,66.5,29.75,SW,217,0.0,7.0,45,0.00,,,0.00,VWS V14.01,2013-10-06 20:18:00,
2013-10-06 16:23:00,90.7,66.5,29.75,West,267,4.0,7.0,45,0.00,,,0.00,VWS V14.01,2013-10-06 20:23:00,
2013-10-06 16:28:00,90.5,66.3,29.75,West,269,0.0,7.0,45,0.00,,,0.00,VWS V14.01,2013-10-06 20:28:00,
2013-10-06 16:30:00,90.3,66.7,29.75,West,261,3.0,7.0,46,0.00,,,0.00,VWS V14.01,2013-10-06 20:30:00,
2013-10-06 16:33:00,90.3,66.7,29.75,West,261,1.0,3.0,46,0.00,,,0.00,VWS V14.01,2013-10-06 20:33:00,
2013-10-06 16:38:00,89.7,65.6,29.75,WSW,237,0.0,4.0,45,0.00,,,0.00,VWS V14.01,2013-10-06 20:38:00,
2013-10-06 16:43:00,89.3,65.8,29.75,WSW,238,0.0,4.0,46,0.00,,,0.00,VWS V14.01,2013-10-06 20:43:00,
2013-10-06 16:48:00,89.5,66.6,29.75,WNW,286,1.0,4.0,47,0.00,,,0.00,VWS V14.01,2013-10-06 20:48:00,
2013-10-06 16:53:00,89.5,65.4,29.75,West,264,4.0,4.0,45,0.00,,,0.00,VWS V14.01,2013-10-06 20:53:00,
2013-10-06 16:58:00,89.3,67.1,29.75,SW,226,0.0,7.0,48,0.00,,,0.00,VWS V14.01,2013-10-06 20:58:00,
2013-10-06 17:00:00,89.0,66.2,29.75,SSW,203,5.0,7.0,47,0.00,,,0.00,VWS V14.01,2013-10-06 21:00:00,
2013-10-06 17:03:00,89.0,66.8,29.75,WSW,250,1.0,5.0,48,0.00,,,0.00,VWS V14.01,2013-10-06 21:03:00,
2013-10-06 17:08:00,89.0,65.6,29.75,WSW,249,0.0,5.0,46,0.00,,,0.00,VWS V14.01,2013-10-06 21:08:00,
2013-10-06 17:13:00,89.3,67.1,29.75,WSW,250,0.0,5.0,48,0.00,,,0.00,VWS V14.01,2013-10-06 21:13:00,
2013-10-06 17:18:00,89.9,66.4,29.75,West,263,0.0,5.0,46,0.00,,,0.00,VWS V14.01,2013-10-06 21:18:00,
2013-10-06 17:23:00,89.9,67.0,29.75,West,267,1.0,6.0,47,0.00,,,0.00,VWS V14.01,2013-10-06 21:23:00,
2013-10-06 17:28:00,89.7,66.2,29.75,West,267,0.0,6.0,46,0.00,,,0.00,VWS V14.01,2013-10-06 21:28:00,
2013-10-06 17:30:00,89.5,67.2,29.75,West,267,0.0,6.0,48,0.00,,,0.00,VWS V14.01,2013-10-06 21:30:00,
2013-10-06 17:33:00,89.5,66.0,29.75,West,279,4.0,5.0,46,0.00,,,0.00,VWS V14.01,2013-10-06 21:33:00,
2013-10-06 17:38:00,89.3,66.4,29.75,West,279,3.0,5.0,47,0.00,,,0.00,VWS V14.01,2013-10-06 21:38:00,
2013-10-06 17:43:00,89.3,69.4,29.75,West,281,0.0,5.0,52,0.00,,,0.00,VWS V14.01,2013-10-06 21:43:00,
2013-10-06 17:48:00,89.3,69.4,29.75,WSW,246,0.0,6.0,52,0.00,,,0.00,VWS V14.01,2013-10-06 21:48:00,
2013-10-06 17:53:00,89.0,66.8,29.75,WSW,248,2.0,6.0,48,0.00,,,0.00,VWS V14.01,2013-10-06 21:53:00,
2013-10-06 17:58:00,89.0,66.8,29.75,WSW,248,0.0,6.0,48,0.00,,,0.00,VWS V14.01,2013-10-06 21:58:00,
2013-10-06 18:00:00,89.0,67.4,29.75,WSW,248,0.0,6.0,49,0.00,,,0.00,VWS V14.01,2013-10-06 22:00:00,
2013-10-06 18:03:00,88.8,67.2,29.75,WSW,250,0.0,5.0,49,0.00,,,0.00,VWS V14.01,2013-10-06 22:03:00,
2013-10-06 18:08:00,88.8,68.9,29.75,WSW,252,0.0,5.0,52,0.00,,,0.00,VWS V14.01,2013-10-06 22:08:00,
2013-10-06 18:13:00,88.2,66.7,29.75,SE,128,4.0,7.0,49,0.00,,,0.00,VWS V14.01,2013-10-06 22:13:00,
2013-10-06 18:18:00,85.7,73.9,29.75,ESE,118,5.0,11.0,68,0.00,,,0.00,VWS V14.01,2013-10-06 22:18:00,
2013-10-06 18:23:00,84.1,73.7,29.75,North,360,7.0,12.0,71,0.00,,,0.00,VWS V14.01,2013-10-06 22:23:00,
2013-10-06 18:28:00,83.4,73.8,29.75,East,81,3.0,14.0,73,0.00,,,0.00,VWS V14.01,2013-10-06 22:28:00,
2013-10-06 18:30:00,82.8,73.7,29.76,ESE,121,1.0,14.0,74,0.00,,,0.00,VWS V14.01,2013-10-06 22:30:00,
2013-10-06 18:33:00,82.6,73.9,29.76,East,93,3.0,9.0,75,0.00,,,0.00,VWS V14.01,2013-10-06 22:33:00,
2013-10-06 18:38:00,82.2,73.5,29.76,East,101,4.0,12.0,75,0.00,,,0.00,VWS V14.01,2013-10-06 22:38:00,
2013-10-06 18:43:00,82.0,74.1,29.76,ESE,107,11.0,12.0,77,0.00,,,0.00,VWS V14.01,2013-10-06 22:43:00,
2013-10-06 18:48:00,81.8,73.9,29.76,ESE,117,5.0,12.0,77,0.00,,,0.00,VWS V14.01,2013-10-06 22:48:00,
2013-10-06 18:53:00,81.6,73.7,29.76,SE,135,0.0,12.0,77,0.00,,,0.00,VWS V14.01,2013-10-06 22:53:00,
2013-10-06 18:58:00,81.4,73.9,29.76,ESE,120,1.0,12.0,78,0.00,,,0.00,VWS V14.01,2013-10-06 22:58:00,
2013-10-06 19:00:00,81.4,73.5,29.77,SE,133,0.0,12.0,77,0.00,,,0.00,VWS V14.01,2013-10-06 23:00:00,
2013-10-06 19:03:00,81.2,73.7,29.77,SE,133,0.0,1.0,78,0.00,,,0.00,VWS V14.01,2013-10-06 23:03:00,
2013-10-06 19:08:00,81.2,73.7,29.77,ESE,107,0.0,6.0,78,0.00,,,0.00,VWS V14.01,2013-10-06 23:08:00,
2013-10-06 19:13:00,81.2,73.7,29.77,East,91,4.0,7.0,78,0.00,,,0.00,VWS V14.01,2013-10-06 23:13:00,
2013-10-06 19:18:00,81.2,73.3,29.77,ESE,103,0.0,9.0,77,0.00,,,0.00,VWS V14.01,2013-10-06 23:18:00,
2013-10-06 19:23:00,81.1,73.6,29.77,ESE,107,3.0,9.0,78,0.00,,,0.00,VWS V14.01,2013-10-06 23:23:00,
2013-10-06 19:28:00,81.1,73.6,29.77,East,93,0.0,9.0,78,0.00,,,0.00,VWS V14.01,2013-10-06 23:28:00,
2013-10-06 19:30:00,80.9,73.4,29.77,ESE,117,4.0,9.0,78,0.00,,,0.00,VWS V14.01,2013-10-06 23:30:00,
2013-10-06 19:33:00,80.9,73.4,29.77,ESE,103,0.0,5.0,78,0.00,,,0.00,VWS V14.01,2013-10-06 23:33:00,
2013-10-06 19:38:00,80.9,73.4,29.77,ESE,105,4.0,7.0,78,0.00,,,0.00,VWS V14.01,2013-10-06 23:38:00,
2013-10-06 19:43:00,80.7,73.2,29.77,ESE,109,0.0,7.0,78,0.00,,,0.00,VWS V14.01,2013-10-06 23:43:00,
2013-10-06 19:48:00,80.5,73.0,29.77,ESE,109,0.0,7.0,78,0.00,,,0.00,VWS V14.01,2013-10-06 23:48:00,
2013-10-06 19:53:00,80.5,73.4,29.77,East,92,0.0,7.0,79,0.00,,,0.00,VWS V14.01,2013-10-06 23:53:00,
2013-10-06 19:58:00,80.3,73.2,29.77,East,96,0.0,7.0,79,0.00,,,0.00,VWS V14.01,2013-10-06 23:58:00,
2013-10-06 20:00:00,80.1,72.6,29.77,East,95,0.0,7.0,78,0.00,,,0.00,VWS V14.01,2013-10-07 00:00:00,
2013-10-06 20:03:00,80.1,72.6,29.77,East,94,0.0,0.0,78,0.00,,,0.00,VWS V14.01,2013-10-07 00:03:00,
2013-10-06 20:08:00,79.9,72.8,29.77,East,94,0.0,0.0,79,0.00,,,0.00,VWS V14.01,2013-10-07 00:08:00,
2013-10-06 20:13:00,79.8,72.3,29.77,East,95,0.0,1.0,78,0.00,,,0.00,VWS V14.01,2013-10-07 00:13:00,
2013-10-06 20:18:00,79.8,72.3,29.78,East,94,0.0,1.0,78,0.00,,,0.00,VWS V14.01,2013-10-07 00:18:00,
2013-10-06 20:23:00,79.8,72.3,29.78,East,94,0.0,1.0,78,0.00,,,0.00,VWS V14.01,2013-10-07 00:23:00,
2013-10-06 20:28:00,79.8,72.3,29.78,East,94,0.0,1.0,78,0.00,,,0.00,VWS V14.01,2013-10-07 00:28:00,
2013-10-06 20:30:00,79.8,72.3,29.79,East,94,0.0,1.0,78,0.00,,,0.00,VWS V14.01,2013-10-07 00:30:00,
2013-10-06 20:33:00,79.6,72.1,29.79,East,95,0.0,0.0,78,0.00,,,0.00,VWS V14.01,2013-10-07 00:33:00,
2013-10-06 20:38:00,79.6,72.1,29.79,East,94,0.0,0.0,78,0.00,,,0.00,VWS V14.01,2013-10-07 00:38:00,
2013-10-06 20:43:00,79.6,72.9,29.79,East,96,0.0,1.0,80,0.00,,,0.00,VWS V14.01,2013-10-07 00:43:00,
2013-10-06 20:48:00,79.4,72.7,29.79,NE,36,0.0,3.0,80,0.00,,,0.00,VWS V14.01,2013-10-07 00:48:00,
2013-10-06 20:53:00,79.0,73.0,29.79,NE,36,0.0,3.0,82,0.00,,,0.00,VWS V14.01,2013-10-07 00:53:00,
2013-10-06 20:58:00,78.6,72.7,29.79,NE,36,0.0,3.0,82,0.00,,,0.00,VWS V14.01,2013-10-07 00:58:00,
2013-10-06 21:00:00,78.6,72.7,29.79,NE,35,0.0,3.0,82,0.00,,,0.00,VWS V14.01,2013-10-07 01:00:00,
2013-10-06 21:03:00,78.5,72.6,29.79,NE,36,0.0,0.0,82,0.00,,,0.00,VWS V14.01,2013-10-07 01:03:00,
2013-10-06 21:08:00,78.3,72.7,29.79,NE,35,0.0,1.0,83,0.00,,,0.00,VWS V14.01,2013-10-07 01:08:00,
2013-10-06 21:13:00,78.3,72.7,29.79,NE,35,0.0,1.0,83,0.00,,,0.00,VWS V14.01,2013-10-07 01:13:00,
2013-10-06 21:18:00,78.3,73.1,29.80,NE,36,0.0,1.0,84,0.00,,,0.00,VWS V14.01,2013-10-07 01:18:00,
2013-10-06 21:23:00,78.1,72.9,29.80,NE,36,0.0,1.0,84,0.00,,,0.00,VWS V14.01,2013-10-07 01:23:00,
2013-10-06 21:28:00,78.1,72.5,29.80,NE,36,0.0,1.0,83,0.00,,,0.00,VWS V14.01,2013-10-07 01:28:00,
2013-10-06 21:30:00,77.9,72.3,29.80,NE,36,0.0,1.0,83,0.00,,,0.00,VWS V14.01,2013-10-07 01:30:00,
2013-10-06 21:33:00,77.9,72.3,29.80,NE,36,0.0,0.0,83,0.00,,,0.00,VWS V14.01,2013-10-07 01:33:00,
2013-10-06 21:38:00,78.1,73.2,29.80,NE,36,0.0,0.0,85,0.00,,,0.00,VWS V14.01,2013-10-07 01:38:00,
2013-10-06 21:43:00,78.3,72.7,29.80,SSE,168,3.0,8.0,83,0.00,,,0.00,VWS V14.01,2013-10-07 01:43:00,
2013-10-06 21:48:00,77.9,72.3,29.80,SE,134,2.0,10.0,83,0.00,,,0.00,VWS V14.01,2013-10-07 01:48:00,
2013-10-06 21:53:00,77.2,72.0,29.80,SE,133,0.0,10.0,84,0.00,,,0.00,VWS V14.01,2013-10-07 01:53:00,
2013-10-06 21:58:00,76.8,71.9,29.80,SE,134,0.0,10.0,85,0.00,,,0.00,VWS V14.01,2013-10-07 01:58:00,
2013-10-06 22:00:00,76.7,72.2,29.80,SE,134,0.0,10.0,86,0.00,,,0.00,VWS V14.01,2013-10-07 02:00:00,
2013-10-06 22:03:00,76.7,72.5,29.80,SE,132,0.0,0.0,87,0.00,,,0.00,VWS V14.01,2013-10-07 02:03:00,
2013-10-06 22:08:00,76.3,72.5,29.80,SE,132,0.0,0.0,88,0.00,,,0.00,VWS V14.01,2013-10-07 02:08:00,
2013-10-06 22:13:00,76.0,72.2,29.80,SE,132,0.0,1.0,88,0.00,,,0.00,VWS V14.01,2013-10-07 02:13:00,
2013-10-06 22:18:00,75.8,72.3,29.80,SE,134,0.0,1.0,89,0.00,,,0.00,VWS V14.01,2013-10-07 02:18:00,
2013-10-06 22:23:00,75.6,72.1,29.80,SE,133,0.0,1.0,89,0.00,,,0.00,VWS V14.01,2013-10-07 02:23:00,
2013-10-06 22:28:00,75.6,72.5,29.80,SE,132,0.0,1.0,90,0.00,,,0.00,VWS V14.01,2013-10-07 02:28:00,
2013-10-06 22:30:00,75.6,72.5,29.80,SE,132,0.0,1.0,90,0.00,,,0.00,VWS V14.01,2013-10-07 02:30:00,
2013-10-06 22:33:00,75.6,72.5,29.80,SE,132,0.0,0.0,90,0.00,,,0.00,VWS V14.01,2013-10-07 02:33:00,
2013-10-06 22:38:00,75.6,72.5,29.80,SE,132,0.0,1.0,90,0.00,,,0.00,VWS V14.01,2013-10-07 02:38:00,
2013-10-06 22:43:00,75.6,72.5,29.80,SE,132,0.0,1.0,90,0.00,,,0.00,VWS V14.01,2013-10-07 02:43:00,
2013-10-06 22:48:00,75.6,72.5,29.80,SE,132,0.0,1.0,90,0.00,,,0.00,VWS V14.01,2013-10-07 02:48:00,
2013-10-06 22:53:00,75.6,72.5,29.80,SE,133,0.0,1.0,90,0.00,,,0.00,VWS V14.01,2013-10-07 02:53:00,
2013-10-06 22:58:00,75.6,72.5,29.80,SE,134,0.0,1.0,90,0.00,,,0.00,VWS V14.01,2013-10-07 02:58:00,
2013-10-06 23:00:00,75.6,72.8,29.79,SE,132,0.0,1.0,91,0.00,,,0.00,VWS V14.01,2013-10-07 03:00:00,
2013-10-06 23:03:00,75.6,72.8,29.79,SE,133,0.0,0.0,91,0.00,,,0.00,VWS V14.01,2013-10-07 03:03:00,
2013-10-06 23:08:00,75.6,72.8,29.79,SE,134,0.0,1.0,91,0.00,,,0.00,VWS V14.01,2013-10-07 03:08:00,
2013-10-06 23:13:00,75.6,72.8,29.79,SE,133,0.0,1.0,91,0.00,,,0.00,VWS V14.01,2013-10-07 03:13:00,
2013-10-06 23:18:00,75.4,72.6,29.79,SE,134,0.0,1.0,91,0.00,,,0.00,VWS V14.01,2013-10-07 03:18:00,
2013-10-06 23:23:00,75.4,72.6,29.79,SE,134,0.0,1.0,91,0.00,,,0.00,VWS V14.01,2013-10-07 03:23:00,
2013-10-06 23:28:00,75.4,72.3,29.79,SE,132,0.0,1.0,90,0.00,,,0.00,VWS V14.01,2013-10-07 03:28:00,
2013-10-06 23:30:00,75.4,72.3,29.78,SE,133,2.0,2.0,90,0.00,,,0.00,VWS V14.01,2013-10-07 03:30:00,
2013-10-06 23:33:00,75.4,72.3,29.78,SE,135,0.0,2.0,90,0.00,,,0.00,VWS V14.01,2013-10-07 03:33:00,
2013-10-06 23:38:00,75.4,71.9,29.78,SE,133,0.0,2.0,89,0.00,,,0.00,VWS V14.01,2013-10-07 03:38:00,
2013-10-06 23:43:00,75.4,71.6,29.78,SE,136,0.0,3.0,88,0.00,,,0.00,VWS V14.01,2013-10-07 03:43:00,
2013-10-06 23:48:00,75.4,71.6,29.78,SE,138,0.0,3.0,88,0.00,,,0.00,VWS V14.01,2013-10-07 03:48:00,
2013-10-06 23:53:00,75.4,71.6,29.78,SE,146,0.0,3.0,88,0.00,,,0.00,VWS V14.01,2013-10-07 03:53:00,
2013-10-06 23:58:00,75.3,71.5,29.78,SSE,147,0.0,3.0,88,0.00,,,0.00,VWS V14.01,2013-10-07 03:58:00,